GW5842 Weather Reports


time (UTC)temp
C
wind
direction
speed
KPH
gust
KPH
rain 1hr
cm
rain 24hr
cm
rain mn
cm
humidity
%
barometer
mb
20260507213225 23 176 1.6 1.6 0.13 4.17 4.17 97 1018.5
20260507212720 23 161 0.0 0.0 0.00 4.14 4.14 97 1018.5
20260507212217 23 135 0.0 0.0 0.00 4.14 4.14 97 1018.2
20260507211714 22 141 0.0 1.6 0.00 4.14 4.14 97 1018.1
20260507211210 22 147 0.0 1.6 0.00 4.14 4.14 97 1018.2
20260507210707 22 150 0.0 1.6 0.18 4.14 4.14 97 1018.3
20260507210204 22 110 0.0 1.6 0.30 4.14 4.14 97 1018.4
20260507205700 22 127 0.0 1.6 0.43 4.11 4.11 96 1018.5
20260507205157 22 136 0.0 4.8 0.61 4.09 4.09 96 1018.5
20260507204653 21 145 0.0 1.6 1.27 4.04 4.04 96 1018.4
20260507204151 21 89 0.0 3.2 2.59 3.99 3.99 96 1018.3
20260507203649 22 132 0.0 3.2 5.64 3.84 3.84 96 1018.7
20260507203146 22 116 0.0 1.6 9.30 3.53 3.53 95 1018.6
20260507202642 22 79 0.0 1.6 11.58 2.77 2.77 95 1018.8
20260507202138 22 68 1.6 4.8 10.49 1.91 1.91 94 1018.8
20260507201633 24 123 1.6 3.2 4.09 0.76 0.76 95 1018.5
20260507201131 24 42 1.6 3.2 0.13 0.10 0.10 94 1018.6
20260507200626 24 139 0.0 0.0 0.00 0.08 0.08 95 1018.4
20260507200123 25 10 1.6 1.6 0.00 0.08 0.08 95 1018.3
20260507195620 25 125 0.0 1.6 0.00 0.08 0.08 95 1018.5
20260507195117 25 180 1.6 3.2 0.00 0.08 0.08 95 1018.7
20260507194614 25 150 0.0 3.2 0.00 0.08 0.08 95 1018.3
20260507194109 24 145 0.0 1.6 0.00 0.08 0.08 95 1018.6
20260507193606 24 137 0.0 0.0 0.00 0.08 0.08 95 1018.4
20260507193103 25 135 0.0 0.0 0.00 0.08 0.08 95 1018.7
20260507192559 24 156 0.0 1.6 0.00 0.08 0.08 95 1018.6
20260507192057 25 273 1.6 3.2 0.00 0.08 0.08 95 1018.7
20260507191552 25 150 0.0 0.0 0.00 0.08 0.08 94 1018.8
20260507191049 25 148 0.0 0.0 0.00 0.08 0.08 94 1018.8
20260507190546 25 148 0.0 1.6 0.00 0.08 0.08 94 1018.7
20260507190045 25 155 0.0 0.0 0.00 0.08 0.08 93 1018.7
20260507185543 25 86 1.6 3.2 0.00 0.08 0.08 93 1018.9
20260507185039 25 259 1.6 4.8 0.18 0.08 0.08 92 1018.8
20260507184538 25 130 0.0 1.6 0.48 0.08 0.08 91 1018.6
20260507184035 26 126 1.6 1.6 0.30 0.05 0.05 89 1018.8
20260507183531 27 122 3.2 4.8 0.00 0.00 0.00 86 1018.9
20260507183028 27 129 0.0 1.6 0.00 0.00 0.00 83 1018.9
20260507182524 27 187 1.6 3.2 0.00 0.00 0.00 82 1018.6
20260507182020 27 212 4.8 11.3 0.00 0.00 0.00 82 1019.0
20260507181517 27 215 1.6 4.8 0.00 0.00 0.00 82 1018.7
20260507181014 27 253 4.8 8.0 0.00 0.00 0.00 81 1018.6
20260507180510 27 189 3.2 4.8 0.00 0.00 0.00 81 1018.6
20260507180007 27 248 6.4 8.0 0.00 0.00 0.00 81 1018.9
20260507175503 28 199 3.2 4.8 0.00 0.00 0.00 81 1018.7
20260507175001 28 256 12.9 17.7 0.00 0.00 0.00 79 1018.9
20260507174458 28 204 3.2 8.0 0.00 0.00 0.00 78 1018.8
20260507173955 28 227 1.6 11.3 0.00 0.00 0.00 80 1018.8
20260507173452 28 202 6.4 11.3 0.00 0.00 0.00 77 1019.0
20260507172949 30 199 3.2 9.7 0.00 0.00 0.00 75 1019.1
20260507172445 28 155 1.6 4.8 0.00 0.00 0.00 75 1019.0
20260507171942 27 144 1.6 3.2 0.00 0.00 0.00 77 1019.3
20260507171438 28 200 3.2 4.8 0.00 0.00 0.00 76 1019.1
20260507170935 29 213 1.6 4.8 0.00 0.00 0.00 76 1019.6
20260507170432 30 215 3.2 11.3 0.00 0.00 0.00 74 1019.6
20260507165928 30 133 1.6 4.8 0.00 0.00 0.00 73 1019.5
20260507165424 30 215 3.2 9.7 0.00 0.00 0.00 73 1019.8
20260507164920 30 155 3.2 3.2 0.00 0.00 0.00 71 1019.7
20260507164417 28 336 3.2 3.2 0.00 0.00 0.00 74 1019.7
20260507163914 30 171 3.2 9.7 0.00 0.00 0.00 72 1019.9
20260507163412 30 244 3.2 8.0 0.00 0.00 0.00 73 1019.8
20260507162908 30 178 1.6 8.0 0.00 0.00 0.00 74 1019.8
20260507162403 30 235 4.8 4.8 0.00 0.00 0.00 73 1020.1
20260507161901 30 286 1.6 11.3 0.00 0.00 0.00 73 1019.8
20260507161357 29 158 3.2 3.2 0.00 0.00 0.00 73 1020.1
20260507160854 30 165 4.8 8.0 0.00 0.00 0.00 73 1020.1
20260507160349 31 245 8.0 12.9 0.00 0.00 0.00 72 1020.0
20260507155846 30 145 3.2 9.7 0.00 0.00 0.00 71 1020.1
20260507155342 30 186 4.8 11.3 0.00 0.00 0.00 75 1020.1
20260507154839 30 197 11.3 14.5 0.00 0.00 0.00 72 1020.4
20260507154336 29 169 4.8 11.3 0.00 0.00 0.00 75 1020.2
20260507153833 28 220 4.8 11.3 0.00 0.00 0.00 74 1020.3
20260507153330 28 245 3.2 9.7 0.00 0.00 0.00 78 1020.4
20260507152826 30 202 9.7 11.3 0.00 0.00 0.00 72 1020.5
20260507152323 29 232 6.4 9.7 0.00 0.00 0.00 74 1020.2
20260507151819 30 235 8.0 9.7 0.00 0.00 0.00 71 1020.4
20260507151315 29 164 1.6 8.0 0.00 0.00 0.00 75 1020.6
20260507150812 28 211 1.6 3.2 0.00 0.00 0.00 74 1020.5
20260507150309 28 200 6.4 11.3 0.00 0.00 0.00 76 1020.6
20260507145805 28 217 0.0 3.2 0.00 0.00 0.00 76 1020.8
20260507145301 28 278 3.2 8.0 0.00 0.00 0.00 77 1020.7
20260507144759 29 242 8.0 9.7 0.00 0.00 0.00 72 1020.9
20260507144256 29 196 1.6 3.2 0.00 0.00 0.00 67 1020.7
20260507143752 29 180 0.0 3.2 0.00 0.00 0.00 70 1020.7
20260507143250 29 125 1.6 4.8 0.00 0.00 0.00 70 1020.6
20260507142745 28 221 6.4 8.0 0.00 0.00 0.00 72 1020.7
20260507142242 28 172 4.8 8.0 0.00 0.00 0.00 73 1020.7
20260507141739 30 233 4.8 4.8 0.00 0.00 0.00 72 1020.7
20260507141236 28 192 3.2 4.8 0.00 0.00 0.00 71 1021.0
20260507140732 28 205 4.8 4.8 0.00 0.00 0.00 70 1021.0
20260507140230 27 120 0.0 1.6 0.00 0.00 0.00 71 1020.9
20260507135726 28 168 1.6 3.2 0.00 0.00 0.00 71 1020.9
20260507135224 28 119 4.8 8.0 0.00 0.00 0.00 73 1020.9
20260507134719 28 235 3.2 8.0 0.00 0.00 0.00 76 1021.0
20260507134216 28 217 1.6 8.0 0.00 0.00 0.00 74 1020.8
20260507133712 26 199 0.0 3.2 0.00 0.00 0.00 76 1020.9
20260507133209 26 168 0.0 1.6 0.00 0.00 0.00 78 1020.9
20260507132707 26 182 0.0 3.2 0.00 0.00 0.00 79 1020.8
20260507132203 28 216 1.6 3.2 0.00 0.00 0.00 77 1020.7
20260507131700 27 166 0.0 0.0 0.00 0.00 0.00 75 1020.8
20260507131158 26 142 3.2 4.8 0.00 0.00 0.00 76 1020.8
20260507130654 28 208 0.0 1.6 0.00 0.00 0.00 76 1020.9
20260507130152 26 154 0.0 1.6 0.00 0.00 0.00 75 1020.9
20260507125650 27 65 1.6 3.2 0.00 0.00 0.00 77 1020.8
20260507125148 26 58 1.6 3.2 0.00 0.00 0.00 79 1020.8
20260507124643 26 111 0.0 3.2 0.00 0.00 0.00 76 1020.7
20260507124141 27 154 0.0 3.2 0.00 0.00 0.00 77 1020.6
20260507123639 26 182 0.0 0.0 0.00 0.00 0.00 75 1020.8
20260507123136 26 136 0.0 0.0 0.00 0.00 0.00 76 1020.6
20260507122631 25 167 0.0 0.0 0.00 0.00 0.00 80 1020.5
20260507122127 26 161 0.0 0.0 0.00 0.00 0.00 79 1020.4
20260507121624 25 144 0.0 0.0 0.00 0.00 0.00 81 1020.5
20260507121120 23 146 0.0 0.0 0.00 0.00 0.00 84 1020.2
20260507120616 25 165 0.0 0.0 0.00 0.00 0.00 82 1020.3
20260507120113 26 164 0.0 0.0 0.00 0.00 0.00 83 1020.1
20260507115609 26 159 0.0 0.0 0.00 0.00 0.00 84 1019.9
20260507115105 25 155 0.0 0.0 0.00 0.00 0.00 86 1019.9
20260507114601 24 162 0.0 0.0 0.00 0.00 0.00 86 1020.2
20260507114058 23 172 0.0 0.0 0.00 0.00 0.00 87 1020.4
20260507113555 22 151 0.0 0.0 0.00 0.00 0.00 92 1020.1
20260507113052 22 163 0.0 0.0 0.00 0.00 0.00 94 1020.2
20260507112550 21 152 0.0 0.0 0.00 0.00 0.00 96 1020.1
20260507112047 22 159 0.0 0.0 0.00 0.00 0.00 96 1020.1
20260507111544 21 165 0.0 0.0 0.00 0.00 0.00 97 1020.0
20260507111041 21 155 0.0 0.0 0.00 0.00 0.00 97 1020.1
20260507110537 21 166 0.0 0.0 0.00 0.00 0.00 97 1020.2
20260507110033 20 164 0.0 0.0 0.00 0.00 0.00 97 1020.2
20260507105530 20 153 0.0 0.0 0.00 0.00 0.00 97 1020.0
20260507105026 20 157 0.0 0.0 0.00 0.00 0.00 97 1020.0
20260507104524 20 158 0.0 0.0 0.00 0.00 0.00 97 1020.0
20260507104020 20 147 0.0 0.0 0.00 0.00 0.00 97 1019.8
20260507103516 20 153 0.0 0.0 0.00 0.00 0.00 97 1020.1
20260507103013 20 156 0.0 0.0 0.00 0.00 0.00 97 1019.7
20260507102510 20 157 0.0 0.0 0.00 0.00 0.00 97 1019.8
20260507102007 20 146 0.0 0.0 0.00 0.00 0.00 97 1019.6
20260507101501 20 148 0.0 0.0 0.00 0.00 0.00 97 1019.6
20260507100958 20 150 0.0 0.0 0.00 0.00 0.00 97 1019.6
20260507100455 20 150 0.0 0.0 0.00 0.00 0.00 97 1019.7
20260507095953 20 149 0.0 0.0 0.00 0.00 0.00 97 1019.4
20260507095451 20 148 0.0 0.0 0.00 0.00 0.00 97 1019.5
20260507094947 20 149 0.0 0.0 0.00 0.00 0.00 97 1019.6
20260507094444 20 150 0.0 0.0 0.00 0.00 0.00 97 1019.5
20260507093941 20 154 0.0 0.0 0.00 0.00 0.00 97 1019.7
20260507093438 20 172 0.0 0.0 0.00 0.00 0.00 97 1019.6
20260507092937 20 160 0.0 0.0 0.00 0.00 0.00 97 1019.5
20260507092432 20 153 0.0 0.0 0.00 0.00 0.00 97 1019.5
20260507091930 20 151 0.0 0.0 0.00 0.00 0.00 97 1019.4
20260507091426 20 137 0.0 0.0 0.00 0.00 0.00 97 1019.7
20260507090922 20 159 0.0 0.0 0.00 0.00 0.00 97 1019.5
20260507090418 20 164 0.0 0.0 0.00 0.00 0.00 97 1019.5
20260507085915 20 152 0.0 0.0 0.00 0.00 0.00 97 1019.8
20260507085412 20 139 0.0 0.0 0.00 0.00 0.00 97 1019.5
20260507084909 20 140 0.0 0.0 0.00 0.00 0.00 97 1019.7
20260507084406 20 176 0.0 0.0 0.00 0.00 0.00 97 1019.7
20260507083903 19 144 0.0 0.0 0.00 0.00 0.00 97 1019.6
20260507083359 20 150 0.0 0.0 0.00 0.00 0.00 97 1019.5
20260507082855 20 160 0.0 0.0 0.00 0.00 0.00 97 1019.4
20260507082351 20 163 0.0 0.0 0.00 0.00 0.00 97 1019.3
20260507081849 20 134 0.0 0.0 0.00 0.00 0.00 97 1019.3
20260507081345 20 144 0.0 0.0 0.00 0.00 0.00 97 1019.6
20260507080842 20 158 0.0 0.0 0.00 0.00 0.00 97 1019.4
20260507080338 20 155 0.0 0.0 0.00 0.00 0.00 97 1019.4
20260507075833 20 147 0.0 0.0 0.00 0.00 0.00 97 1019.4
20260507075329 20 146 0.0 0.0 0.00 0.00 0.00 97 1019.4
20260507074826 20 153 0.0 0.0 0.00 0.00 0.00 97 1019.5
20260507074323 20 148 0.0 0.0 0.00 0.00 0.00 97 1019.5
20260507073821 20 160 0.0 0.0 0.00 0.00 0.00 97 1019.5
20260507073317 20 160 0.0 0.0 0.00 0.00 0.00 97 1019.6
20260507072814 20 144 0.0 0.0 0.00 0.00 0.00 96 1019.4
20260507072312 20 148 0.0 0.0 0.00 0.00 0.00 96 1019.7
20260507071809 20 159 0.0 0.0 0.00 0.00 0.00 96 1019.5
20260507071306 20 159 0.0 0.0 0.00 0.00 0.00 96 1019.5
20260507070802 20 139 0.0 0.0 0.00 0.00 0.00 96 1019.8
20260507070300 20 157 0.0 0.0 0.00 0.00 0.00 96 1019.8
20260507065756 20 150 0.0 0.0 0.00 0.00 0.00 96 1019.9
20260507065253 20 156 0.0 0.0 0.00 0.00 0.00 96 1019.9
20260507064750 20 161 0.0 0.0 0.00 0.00 0.00 96 1019.9
20260507064249 20 140 0.0 0.0 0.00 0.00 0.00 96 1019.9
20260507063746 20 145 0.0 0.0 0.00 0.00 0.00 96 1019.9
20260507063243 20 162 0.0 0.0 0.00 0.00 0.00 96 1020.0
20260507062740 20 158 0.0 0.0 0.00 0.00 0.00 96 1020.1
20260507062237 20 156 0.0 0.0 0.00 0.00 0.00 96 1020.2
20260507061735 20 152 0.0 0.0 0.00 0.00 0.00 96 1020.2
20260507061232 20 144 0.0 0.0 0.00 0.00 0.00 96 1020.1
20260507060731 20 138 0.0 0.0 0.00 0.00 0.00 96 1020.4
20260507060227 20 149 0.0 0.0 0.00 0.00 0.00 96 1020.3
20260507055723 20 164 0.0 0.0 0.00 0.00 0.00 96 1020.4
20260507055219 20 191 0.0 0.0 0.00 0.00 0.00 96 1020.8
20260507054715 20 152 0.0 0.0 0.00 0.00 0.00 96 1020.5
20260507054212 20 148 0.0 0.0 0.00 0.00 0.00 96 1020.8
20260507053709 20 144 0.0 0.0 0.00 0.00 0.00 96 1020.8
20260507053207 20 155 0.0 0.0 0.00 0.00 0.00 96 1020.7
20260507052706 20 156 0.0 0.0 0.00 0.00 0.00 96 1020.9
20260507052201 20 154 0.0 0.0 0.00 0.00 0.00 96 1021.0
20260507051700 20 149 0.0 0.0 0.00 0.00 0.00 96 1021.1
20260507051156 20 150 0.0 0.0 0.00 0.00 0.00 96 1021.0
20260507050653 20 148 0.0 0.0 0.00 0.00 0.00 96 1021.3
20260507050150 20 153 0.0 0.0 0.00 0.00 0.00 96 1021.2
20260507045646 20 131 0.0 0.0 0.00 0.00 0.00 96 1021.3
20260507045143 20 136 0.0 0.0 0.00 0.00 0.00 96 1021.4
20260507044640 20 143 0.0 0.0 0.00 0.00 0.00 96 1021.5
20260507044137 21 144 0.0 0.0 0.00 0.00 0.00 96 1021.5
20260507043633 20 135 0.0 0.0 0.00 0.00 0.00 96 1021.5
20260507043130 20 134 0.0 0.0 0.00 0.00 0.00 95 1021.5
20260507042626 21 146 0.0 0.0 0.00 0.00 0.00 96 1021.6
20260507042121 21 151 0.0 0.0 0.00 0.00 0.00 96 1021.5
20260507041618 21 150 0.0 0.0 0.00 0.00 0.00 96 1021.9
20260507041115 21 145 0.0 0.0 0.00 0.00 0.00 96 1021.9
20260507040612 21 146 0.0 0.0 0.00 0.00 0.00 95 1021.9
20260507040109 21 144 0.0 0.0 0.00 0.00 0.00 95 1021.7
20260507035604 21 148 0.0 0.0 0.00 0.00 0.00 95 1022.0
20260507035101 21 145 0.0 0.0 0.00 0.00 0.00 95 1021.9
20260507034558 21 132 0.0 0.0 0.00 0.00 0.00 95 1022.2
20260507034055 21 153 0.0 0.0 0.00 0.00 0.00 95 1022.2
20260507033553 21 153 0.0 0.0 0.00 0.00 0.00 95 1022.1
20260507033050 21 144 0.0 0.0 0.00 0.00 0.00 95 1021.9
20260507032547 21 138 0.0 0.0 0.00 0.00 0.00 95 1022.0
20260507032044 21 150 0.0 0.0 0.00 0.00 0.00 95 1022.0
20260507031540 21 134 0.0 0.0 0.00 0.00 0.00 95 1022.2
20260507031037 21 146 0.0 0.0 0.00 0.00 0.00 95 1022.1
20260507030534 21 136 0.0 0.0 0.00 0.00 0.00 95 1021.9
20260507030032 21 146 0.0 0.0 0.00 0.00 0.00 95 1022.1
20260507025528 22 135 0.0 0.0 0.00 0.00 0.00 95 1022.2
20260507025026 21 137 0.0 0.0 0.00 0.00 0.00 95 1022.1
20260507024524 22 152 0.0 0.0 0.00 0.00 0.00 94 1022.4
20260507024020 22 148 0.0 0.0 0.00 0.00 0.00 94 1022.0
20260507023516 22 144 0.0 0.0 0.00 0.00 0.00 94 1022.2
20260507023014 22 148 0.0 0.0 0.00 0.00 0.00 94 1022.2
20260507022510 22 154 0.0 0.0 0.00 0.00 0.00 94 1022.1
20260507022006 22 152 0.0 0.0 0.00 0.00 0.00 94 1022.1
20260507021502 22 147 0.0 0.0 0.00 0.00 0.00 94 1022.0
20260507020959 22 146 0.0 0.0 0.00 0.00 0.00 94 1021.9
20260507020456 22 144 0.0 0.0 0.00 0.00 0.00 94 1022.1
20260507015953 22 153 0.0 0.0 0.00 0.00 0.00 94 1021.9
20260507015451 22 154 0.0 0.0 0.00 0.00 0.00 94 1021.7
20260507014948 22 97 0.0 0.0 0.00 0.00 0.00 94 1022.0
20260507014444 22 149 0.0 0.0 0.00 0.00 0.00 94 1021.9
20260507013940 22 155 0.0 0.0 0.00 0.00 0.00 94 1021.9
20260507013437 22 156 0.0 0.0 0.00 0.00 0.00 94 1021.7
20260507012935 22 148 0.0 0.0 0.00 0.00 0.00 94 1021.9
20260507012432 23 138 0.0 0.0 0.00 0.00 0.00 94 1021.9
20260507011928 22 154 0.0 0.0 0.00 0.00 0.00 94 1021.6
20260507011426 22 134 0.0 0.0 0.00 0.00 0.00 93 1021.4
20260507010925 22 151 0.0 0.0 0.00 0.00 0.00 93 1021.5
20260507010421 22 127 0.0 0.0 0.00 0.00 0.00 93 1021.4
20260507005918 23 150 0.0 0.0 0.00 0.00 0.00 93 1021.3
20260507005415 23 154 0.0 0.0 0.00 0.00 0.00 93 1021.3
20260507004911 23 133 0.0 0.0 0.00 0.00 0.00 93 1021.4
20260507004408 23 155 0.0 0.0 0.00 0.00 0.00 93 1021.6
20260507003906 23 145 0.0 0.0 0.00 0.00 0.00 93 1021.3
20260507003401 23 151 0.0 0.0 0.00 0.00 0.00 92 1021.4
20260507002856 23 147 0.0 0.0 0.00 0.00 0.00 92 1021.4
20260507002353 23 148 0.0 0.0 0.00 0.00 0.00 92 1021.2
20260507001850 23 141 0.0 0.0 0.00 0.00 0.00 92 1021.0
20260507001347 23 153 0.0 0.0 0.00 0.00 0.00 92 1021.3
20260507000843 23 151 0.0 0.0 0.00 0.00 0.00 92 1021.0
20260507000339 23 149 0.0 0.0 0.00 0.00 0.00 92 1021.0
20260506235835 23 153 0.0 0.0 0.00 0.00 0.00 92 1020.9
20260506235332 23 151 0.0 0.0 0.00 0.00 0.00 92 1021.0
20260506234828 23 156 0.0 0.0 0.00 0.00 0.00 91 1020.9
20260506234326 23 143 0.0 0.0 0.00 0.00 0.00 91 1021.0
20260506233824 24 155 0.0 0.0 0.00 0.00 0.00 91 1020.8
20260506233319 24 155 0.0 0.0 0.00 0.00 0.00 90 1020.9
20260506232816 24 140 0.0 0.0 0.00 0.00 0.00 90 1020.7
20260506232311 25 150 0.0 0.0 0.00 0.00 0.00 89 1020.7
20260506231809 25 144 0.0 0.0 0.00 0.00 0.00 89 1020.6
20260506231307 25 156 0.0 0.0 0.00 0.00 0.00 89 1020.4
20260506230804 25 156 0.0 0.0 0.00 0.00 0.00 88 1020.5
20260506230300 25 149 0.0 0.0 0.00 0.00 0.00 87 1020.2
20260506225757 26 145 0.0 0.0 0.00 0.00 0.00 87 1020.1
20260506225254 26 157 0.0 1.6 0.00 0.00 0.00 87 1020.1
20260506224750 26 159 0.0 1.6 0.00 0.00 0.00 87 1019.9
20260506224248 26 180 0.0 1.6 0.00 0.00 0.00 87 1019.9
20260506223744 26 163 0.0 1.6 0.00 0.00 0.00 86 1019.9
20260506223240 26 311 1.6 3.2 0.00 0.00 0.00 85 1020.0
20260506222737 26 237 3.2 3.2 0.00 0.00 0.00 85 1019.8
20260506222232 27 218 3.2 3.2 0.00 0.00 0.00 84 1019.6
20260506221731 26 224 3.2 4.8 0.00 0.00 0.00 84 1020.0
20260506221228 27 172 0.0 1.6 0.00 0.00 0.00 83 1019.8
20260506220725 27 187 3.2 4.8 0.00 0.00 0.00 83 1019.8
20260506220220 27 198 1.6 3.2 0.00 0.00 0.00 82 1019.8
20260506215717 27 224 3.2 3.2 0.00 0.00 0.00 80 1019.7
20260506215212 27 224 1.6 3.2 0.00 0.00 0.00 79 1019.5
20260506214709 28 219 4.8 9.7 0.00 0.00 0.00 76 1019.5
20260506214207 28 171 0.0 4.8 0.00 0.00 0.00 76 1019.7
20260506213705 29 211 4.8 11.3 0.00 0.00 0.00 74 1019.5